Home   Weather   Besançon   Past weeks

Flag for France Past Weather in Besançon, Franche-Comté, France — Yesterday and Last 2 Weeks

Now
43 °F

Mostly cloudy.


Feels Like: 39 °F
Forecast: 36 / 49 °F
Wind: 7 mph from North

Location: Dole Tavaux

Current Time: Apr 26, 2017 at 2:13:51 pm

Latest Report: Apr 26, 2017 at 1:30 pm


Visibility: N/A

Pressure: 29.86 "Hg

Humidity: 87%

Dew Point: 39 °F

Location of BesançonLocation

Past Weather in Besançon — Graph

°F

Besançon Temperature Yesterday

Maximum temperature yesterday: 59 °F (at 12:00 am)
Minimum temperature yesterday: 39 °F (at 10:30 pm)
Average temperature yesterday: 52 °F

High & Low Weather Summary for the Past Weeks

 TemperatureHumidityPressure
High68 °F (Apr 24, 4:30 pm)100% (Apr 12, 7:00 am)30.51 "Hg (Apr 12, 7:00 am)
Low30 °F (Apr 21, 6:30 am)21% (Apr 21, 2:00 pm)29.74 "Hg (Apr 25, 5:30 pm)
Average49 °F66%30.16 "Hg
* Reported Apr 11 1:00 pm — Apr 26 1:00 pm, Besançon, Weather by CustomWeather, © 2017

Note: Actual official high and low records may vary slightly from our data, if they occured in-between our weather recording intervals... More about our weather records

Advertising

Besançon Weather History for the Previous 24 Hours

Scroll right to see more
 ConditionsComfort  
Time TempWeatherWind HumidityBarometerVisibility
1:00 pm
Wed, Apr 26
45 °FMostly cloudy.7 mph81%29.86 "HgN/A
12:30 pm45 °FMostly cloudy.10 mph81%29.86 "HgN/A
11:30 am41 °FOvercast.7 mph93%29.86 "HgN/A
11:00 am41 °FOvercast.9 mph93%29.86 "HgN/A
10:30 am41 °FOvercast.8 mph93%29.86 "HgN/A
10:00 am39 °FLight rain. Overcast.9 mph93%29.83 "HgN/A
9:30 am39 °FLow clouds.9 mph93%29.83 "HgN/A
9:00 am39 °FLight rain. Mostly cloudy.9 mph93%29.83 "HgN/A
8:30 am37 °FLight rain. Low clouds.7 mph100%29.83 "HgN/A
8:00 am37 °FLight rain. Low clouds.10 mph100%29.83 "HgN/A
7:30 am37 °FLight rain. Low clouds.10 mph93%29.80 "HgN/A
7:00 am37 °FPartly cloudy.10 mph93%29.80 "HgN/A
6:30 am36 °FLight rain. Mostly cloudy.8 mph100%29.80 "HgN/A
6:00 am36 °FLight rain. Mostly cloudy.10 mph100%29.80 "HgN/A
5:30 am36 °FLight rain. Passing clouds.10 mph100%29.80 "HgN/A
5:00 am37 °FLight rain. Mostly cloudy.12 mph93%29.80 "HgN/A
4:30 am37 °FLight rain. Low clouds.10 mph93%29.80 "HgN/A
4:00 am36 °FLight rain. Low clouds.10 mph100%29.77 "HgN/A
3:30 am36 °FLight rain. Mostly cloudy.10 mph100%29.77 "HgN/A
3:00 am36 °FLight rain. Passing clouds.10 mph100%29.80 "HgN/A
2:30 am37 °FLight rain. Low clouds.8 mph93%29.80 "HgN/A
2:00 am37 °FLight rain. Low clouds.9 mph93%29.80 "HgN/A
1:30 am37 °FLight rain. Low clouds.9 mph100%29.80 "HgN/A
1:00 am37 °FLight rain. Passing clouds.8 mph100%29.80 "HgN/A
12:30 am37 °FLight rain. Overcast.7 mph100%29.80 "HgN/A
12:00 am37 °FRain. Overcast.8 mph100%29.80 "HgN/A
11:30 pm
Tue, Apr 25
39 °FRain. Mostly cloudy.8 mph93%29.80 "Hg6 mi
11:00 pm39 °FRain. Mostly cloudy.12 mph93%29.80 "HgN/A
10:30 pm39 °FLight rain. Low clouds.14 mph93%29.80 "HgN/A
9:30 pm41 °FRain. Partly sunny.16 mph93%29.77 "Hg5 mi
9:00 pm41 °FHeavy rain. Mostly cloudy.15 mph100%29.74 "Hg4 mi
8:30 pm43 °FRain. Low clouds.16 mph93%29.74 "Hg5 mi
8:00 pm43 °FRain. Low clouds.16 mph93%29.74 "Hg4 mi
7:30 pm45 °FLight rain. Mostly cloudy.17 mph93%29.74 "Hg6 mi
7:00 pm46 °FRain. Low clouds.17 mph93%29.74 "Hg4 mi
6:30 pm48 °FRain. Mostly cloudy.16 mph94%29.74 "Hg4 mi
6:00 pm50 °FHeavy rain. Fog.12 mph94%29.74 "Hg3 mi
5:30 pm52 °FLight rain. Overcast.7 mph94%29.74 "Hg6 mi
4:30 pm52 °FRain. Broken clouds.9 mph88%29.77 "Hg4 mi
4:00 pm52 °FRain. Broken clouds.9 mph88%29.77 "Hg4 mi
3:30 pm52 °FLight rain. Overcast.14 mph94%29.80 "Hg5 mi
3:00 pm52 °FRain. Broken clouds.14 mph94%29.80 "Hg4 mi
2:30 pm55 °FMostly cloudy.16 mph72%29.80 "HgN/A
2:00 pm57 °FSunny.14 mph67%29.80 "Hg10 mi
Weather by CustomWeather, © 2017

See weather overviewHow to use our weather pages